Time,TemperatureF,DewpointF,PressureIn,WindDirection,WindDirectionDegrees,WindSpeedMPH,WindSpeedGustMPH,Humidity,HourlyPrecipIn,Conditions,Clouds,dailyrainin,SoftwareType,DateUTC
2013-04-26 00:08:00,55.2,36.4,30.12,WNW,292,0.0,-999.0,49,-99.99,,,0.00,Acu-Link.com,2013-04-26 02:08:00,
2013-04-26 00:26:00,54.9,37.6,30.13,West,270,0.0,-999.0,52,-99.99,,,0.00,Acu-Link.com,2013-04-26 02:26:00,
2013-04-26 00:47:00,53.6,39.6,30.13,ESE,112,0.0,-999.0,59,-99.99,,,0.00,Acu-Link.com,2013-04-26 02:47:00,
2013-04-26 01:06:00,52.9,38.9,30.14,NNW,337,0.0,-999.0,59,-99.99,,,0.00,Acu-Link.com,2013-04-26 03:06:00,
2013-04-26 01:21:00,53.4,36.7,30.14,SSW,202,1.1,-999.0,53,-99.99,,,0.00,Acu-Link.com,2013-04-26 03:21:00,
2013-04-26 01:36:00,53.1,38.2,30.14,SSE,157,0.0,-999.0,57,-99.99,,,0.00,Acu-Link.com,2013-04-26 03:36:00,
2013-04-26 01:52:00,53.1,34.9,30.14,SSW,202,0.0,-999.0,50,-99.99,,,0.00,Acu-Link.com,2013-04-26 03:52:00,
2013-04-26 02:07:00,53.4,34.7,30.14,SSW,202,1.1,-999.0,49,-99.99,,,0.00,Acu-Link.com,2013-04-26 04:07:00,
2013-04-26 02:22:00,52.3,35.7,30.15,South,180,0.0,-999.0,53,-99.99,,,0.00,Acu-Link.com,2013-04-26 04:22:00,
2013-04-26 02:37:00,50.9,35.8,30.15,SSE,157,0.0,-999.0,56,-99.99,,,0.00,Acu-Link.com,2013-04-26 04:37:00,
2013-04-26 02:52:00,49.5,39.3,30.15,North,0,1.6,-999.0,68,-99.99,,,0.00,Acu-Link.com,2013-04-26 04:52:00,
2013-04-26 03:08:00,48.4,37.2,30.15,SSE,157,0.0,-999.0,65,-99.99,,,0.00,Acu-Link.com,2013-04-26 05:08:00,
2013-04-26 03:23:00,48.2,35.4,30.15,East,90,0.0,-999.0,61,-99.99,,,0.00,Acu-Link.com,2013-04-26 05:23:00,
2013-04-26 03:38:00,47.7,40.1,30.15,South,180,0.0,-999.0,75,-99.99,,,0.00,Acu-Link.com,2013-04-26 05:38:00,
2013-04-26 03:53:00,46.4,37.9,30.15,NNW,337,1.6,-999.0,72,-99.99,,,0.00,Acu-Link.com,2013-04-26 05:53:00,
2013-04-26 04:08:00,46.6,37.0,30.15,SSW,202,0.0,-999.0,69,-99.99,,,0.00,Acu-Link.com,2013-04-26 06:08:00,
2013-04-26 04:24:00,46.2,38.7,30.14,SSW,202,0.0,-999.0,75,-99.99,,,0.00,Acu-Link.com,2013-04-26 06:24:00,
2013-04-26 04:39:00,45.9,38.7,30.14,NNE,22,0.0,-999.0,76,-99.99,,,0.00,Acu-Link.com,2013-04-26 06:39:00,
2013-04-26 04:54:00,45.5,37.7,30.14,North,0,1.6,-999.0,74,-99.99,,,0.00,Acu-Link.com,2013-04-26 06:54:00,
2013-04-26 05:12:00,45.5,40.0,30.13,SSW,202,0.0,-999.0,81,-99.99,,,0.00,Acu-Link.com,2013-04-26 07:12:00,
2013-04-26 05:28:00,45.3,37.2,30.12,SSW,202,0.0,-999.0,73,-99.99,,,0.00,Acu-Link.com,2013-04-26 07:28:00,
2013-04-26 05:43:00,45.1,37.4,30.12,SW,225,0.0,-999.0,74,-99.99,,,0.00,Acu-Link.com,2013-04-26 07:43:00,
2013-04-26 06:00:00,44.2,36.5,30.12,SSW,202,0.0,-999.0,74,-99.99,,,0.00,Acu-Link.com,2013-04-26 08:00:00,
2013-04-26 06:22:00,43.2,37.1,30.13,NE,45,0.0,-999.0,79,-99.99,,,0.00,Acu-Link.com,2013-04-26 08:22:00,
2013-04-26 06:39:00,42.1,37.6,30.13,SSW,202,0.0,-999.0,84,-99.99,,,0.00,Acu-Link.com,2013-04-26 08:39:00,
2013-04-26 06:54:00,41.2,36.7,30.14,NE,45,0.0,-999.0,84,-99.99,,,0.00,Acu-Link.com,2013-04-26 08:54:00,
2013-04-26 07:10:00,40.6,37.1,30.14,SE,135,0.0,-999.0,87,-99.99,,,0.00,Acu-Link.com,2013-04-26 09:10:00,
2013-04-26 07:26:00,40.3,37.3,30.15,East,90,0.0,-999.0,89,-99.99,,,0.00,Acu-Link.com,2013-04-26 09:26:00,
2013-04-26 07:41:00,39.6,36.3,30.15,SSW,202,0.0,-999.0,88,-99.99,,,0.00,Acu-Link.com,2013-04-26 09:41:00,
2013-04-26 07:56:00,39.6,38.5,30.15,SSW,202,0.0,-999.0,96,-99.99,,,0.00,Acu-Link.com,2013-04-26 09:56:00,
2013-04-26 08:12:00,39.2,38.4,30.15,SSE,157,0.0,-999.0,97,-99.99,,,0.00,Acu-Link.com,2013-04-26 10:12:00,
2013-04-26 08:28:00,39.0,38.5,30.16,NNE,22,0.0,-999.0,98,-99.99,,,0.00,Acu-Link.com,2013-04-26 10:28:00,
2013-04-26 08:48:00,38.5,38.0,30.17,SE,135,0.0,-999.0,98,-99.99,,,0.00,Acu-Link.com,2013-04-26 10:48:00,
2013-04-26 09:03:00,38.3,37.8,30.18,SSW,202,0.0,-999.0,98,-99.99,,,0.00,Acu-Link.com,2013-04-26 11:03:00,
2013-04-26 09:19:00,38.7,38.1,30.18,South,180,0.0,-999.0,98,-99.99,,,0.00,Acu-Link.com,2013-04-26 11:19:00,
2013-04-26 09:40:00,39.4,38.9,30.20,North,0,0.0,-999.0,98,-99.99,,,0.00,Acu-Link.com,2013-04-26 11:40:00,
2013-04-26 09:56:00,42.1,41.6,30.21,SW,225,0.0,-999.0,98,-99.99,,,0.00,Acu-Link.com,2013-04-26 11:56:00,
2013-04-26 10:11:00,44.4,43.9,30.21,South,180,0.0,-999.0,98,-99.99,,,0.00,Acu-Link.com,2013-04-26 12:11:00,
2013-04-26 10:27:00,46.0,45.5,30.22,SSE,157,0.0,-999.0,98,-99.99,,,0.00,Acu-Link.com,2013-04-26 12:27:00,
2013-04-26 10:42:00,48.4,47.0,30.24,SSW,202,0.0,-999.0,95,-99.99,,,0.00,Acu-Link.com,2013-04-26 12:42:00,
2013-04-26 10:58:00,50.5,45.3,30.24,South,180,0.0,-999.0,82,-99.99,,,0.00,Acu-Link.com,2013-04-26 12:58:00,
2013-04-26 11:13:00,55.6,41.5,30.24,South,180,0.0,-999.0,59,-99.99,,,0.00,Acu-Link.com,2013-04-26 13:13:00,
2013-04-26 11:29:00,57.2,41.6,30.23,ESE,112,1.6,-999.0,56,-99.99,,,0.00,Acu-Link.com,2013-04-26 13:29:00,
2013-04-26 11:45:00,59.5,41.9,30.23,SSE,157,2.7,-999.0,52,-99.99,,,0.00,Acu-Link.com,2013-04-26 13:45:00,
2013-04-26 12:04:00,62.8,41.1,30.23,East,90,4.3,-999.0,45,-99.99,,,0.00,Acu-Link.com,2013-04-26 14:04:00,
2013-04-26 12:19:00,65.1,38.9,30.23,East,90,3.8,-999.0,38,-99.99,,,0.00,Acu-Link.com,2013-04-26 14:19:00,
2013-04-26 12:42:00,66.2,39.2,30.23,SSE,157,4.3,-999.0,37,-99.99,,,0.00,Acu-Link.com,2013-04-26 14:42:00,
2013-04-26 13:04:00,64.8,38.6,30.24,ESE,112,2.2,-999.0,38,-99.99,,,0.00,Acu-Link.com,2013-04-26 15:04:00,
2013-04-26 13:20:00,65.5,38.5,30.24,ESE,112,3.1,-999.0,37,-99.99,,,0.00,Acu-Link.com,2013-04-26 15:20:00,
2013-04-26 13:35:00,65.3,39.7,30.25,ESE,112,3.1,-999.0,39,-99.99,,,0.00,Acu-Link.com,2013-04-26 15:35:00,
2013-04-26 13:55:00,67.5,42.3,30.26,South,180,4.7,-999.0,40,-99.99,,,0.00,Acu-Link.com,2013-04-26 15:55:00,
2013-04-26 14:10:00,68.2,42.3,30.26,NNE,22,3.8,-999.0,39,-99.99,,,0.00,Acu-Link.com,2013-04-26 16:10:00,
2013-04-26 14:25:00,67.3,41.5,30.25,ESE,112,2.7,-999.0,39,-99.99,,,0.00,Acu-Link.com,2013-04-26 16:25:00,
2013-04-26 14:48:00,67.8,42.6,30.25,ESE,112,3.1,-999.0,40,-99.99,,,0.00,Acu-Link.com,2013-04-26 16:48:00,
2013-04-26 15:05:00,67.3,42.8,30.25,ENE,67,2.7,-999.0,41,-99.99,,,0.00,Acu-Link.com,2013-04-26 17:05:00,
2013-04-26 15:21:00,69.1,45.0,30.24,SSW,202,2.7,-999.0,42,-99.99,,,0.00,Acu-Link.com,2013-04-26 17:21:00,
2013-04-26 15:37:00,68.7,43.4,30.24,ESE,112,2.2,-999.0,40,-99.99,,,0.00,Acu-Link.com,2013-04-26 17:37:00,
2013-04-26 15:53:00,70.5,44.4,30.24,SE,135,1.1,-999.0,39,-99.99,,,0.00,Acu-Link.com,2013-04-26 17:53:00,
2013-04-26 16:14:00,68.5,42.6,30.23,South,180,3.1,-999.0,39,-99.99,,,0.00,Acu-Link.com,2013-04-26 18:14:00,
2013-04-26 16:29:00,69.3,41.9,30.23,ESE,112,4.3,-999.0,37,-99.99,,,0.00,Acu-Link.com,2013-04-26 18:29:00,
2013-04-26 16:47:00,69.4,42.7,30.22,South,180,2.7,-999.0,38,-99.99,,,0.00,Acu-Link.com,2013-04-26 18:47:00,
2013-04-26 17:08:00,70.9,44.0,30.21,North,0,1.1,-999.0,38,-99.99,,,0.00,Acu-Link.com,2013-04-26 19:08:00,
2013-04-26 17:26:00,71.1,44.2,30.20,South,180,2.7,-999.0,38,-99.99,,,0.00,Acu-Link.com,2013-04-26 19:26:00,
2013-04-26 17:42:00,71.1,44.8,30.19,SSE,157,2.7,-999.0,39,-99.99,,,0.00,Acu-Link.com,2013-04-26 19:42:00,
2013-04-26 17:58:00,70.5,42.3,30.19,South,180,3.1,-999.0,36,-99.99,,,0.00,Acu-Link.com,2013-04-26 19:58:00,
2013-04-26 18:14:00,70.2,42.0,30.17,ESE,112,0.0,-999.0,36,-99.99,,,0.00,Acu-Link.com,2013-04-26 20:14:00,
2013-04-26 18:32:00,71.8,44.8,30.17,South,180,1.6,-999.0,38,-99.99,,,0.00,Acu-Link.com,2013-04-26 20:32:00,
2013-04-26 18:48:00,71.1,43.5,30.17,SSW,202,2.2,-999.0,37,-99.99,,,0.00,Acu-Link.com,2013-04-26 20:48:00,
2013-04-26 19:04:00,70.3,42.1,30.17,ENE,67,2.7,-999.0,36,-99.99,,,0.00,Acu-Link.com,2013-04-26 21:04:00,
2013-04-26 19:24:00,71.8,43.4,30.16,SSW,202,0.0,-999.0,36,-99.99,,,0.00,Acu-Link.com,2013-04-26 21:24:00,
2013-04-26 19:41:00,72.3,44.6,30.16,WSW,247,1.1,-999.0,37,-99.99,,,0.00,Acu-Link.com,2013-04-26 21:41:00,
2013-04-26 19:58:00,71.6,45.3,30.15,SSE,157,0.0,-999.0,39,-99.99,,,0.00,Acu-Link.com,2013-04-26 21:58:00,
2013-04-26 20:14:00,70.0,45.2,30.15,SE,135,0.0,-999.0,41,-99.99,,,0.00,Acu-Link.com,2013-04-26 22:14:00,
2013-04-26 20:29:00,69.6,44.9,30.16,South,180,0.0,-999.0,41,-99.99,,,0.00,Acu-Link.com,2013-04-26 22:29:00,
2013-04-26 20:45:00,69.4,46.6,30.16,SSE,157,0.0,-999.0,44,-99.99,,,0.00,Acu-Link.com,2013-04-26 22:45:00,
2013-04-26 21:00:00,68.7,47.7,30.17,ESE,112,0.0,-999.0,47,-99.99,,,0.00,Acu-Link.com,2013-04-26 23:00:00,
2013-04-26 21:15:00,68.0,47.0,30.18,NNW,337,0.0,-999.0,47,-99.99,,,0.00,Acu-Link.com,2013-04-26 23:15:00,
2013-04-26 21:30:00,67.3,49.6,30.19,SSE,157,0.0,-999.0,53,-99.99,,,0.00,Acu-Link.com,2013-04-26 23:30:00,
2013-04-26 21:45:00,66.6,52.7,30.19,NNW,337,0.0,-999.0,61,-99.99,,,0.00,Acu-Link.com,2013-04-26 23:45:00,
2013-04-26 22:16:00,64.0,53.7,30.20,NNW,337,0.0,-999.0,69,-99.99,,,0.00,Acu-Link.com,2013-04-27 00:16:00,
2013-04-26 22:31:00,63.3,52.2,30.20,NNW,337,0.0,-999.0,67,-99.99,,,0.00,Acu-Link.com,2013-04-27 00:31:00,
2013-04-26 22:46:00,62.1,52.5,30.20,NNW,337,0.0,-999.0,71,-99.99,,,0.00,Acu-Link.com,2013-04-27 00:46:00,
2013-04-26 23:01:00,61.2,54.2,30.18,North,0,0.0,-999.0,78,-99.99,,,0.00,Acu-Link.com,2013-04-27 01:01:00,
2013-04-26 23:17:00,60.4,55.9,30.17,NNW,337,0.0,-999.0,85,-99.99,,,0.00,Acu-Link.com,2013-04-27 01:17:00,
2013-04-26 23:32:00,59.2,53.7,30.16,NE,45,0.0,-999.0,82,-99.99,,,0.00,Acu-Link.com,2013-04-27 01:32:00,
2013-04-26 23:47:00,58.8,51.3,30.13,SE,135,0.0,-999.0,76,-99.99,,,0.00,Acu-Link.com,2013-04-27 01:47:00,